Phoenix Deer Valley, AZ

4:36 PM MST on September 20, 2019 (GMT -0700)
Phoenix-Deer Valley Municipal

Weather History for KDVT - July, 2019

Change the Weather History Date:

Thursday, July 11, 2019

  Actual Average Record
Temperature  
Mean Temperature 98 °F -  
Max Temperature 111 °F 101 °F 113 °F (1998)
Min Temperature 84 °F 79 °F 73 °F (2008)
Cooling Degree Days 32    
Growing Degree Days 48 (Base 50)    
Moisture  
Dew Point 41 °F    
Average Humidity 15    
Maximum Humidity 22    
Minimum Humidity 9    
Precipitation  
Precipitation 0.00 in - - ()
Sea Level Pressure  
Sea Level Pressure 29.77 in    
Wind  
Wind Speed 8 mph (West)    
Max Wind Speed 23 mph    
Max Gust Speed 36 mph    
Visibility 10 miles    
Events      
Averages and records for this station are not official NWS values.
T = Trace of Precipitation, MM = Missing Value Source: NWS Daily Summary

Daily Weather History Graph

Daily Weather History Graph

Search for Another Location

Airport or City:

Astronomy

Jul. 11, 2019 Rise Set
Actual Time 5:26 AM MST 7:40 PM MST
Civil Twilight 4:57 AM MST 8:09 PM MST
Nautical Twilight 4:22 AM MST 8:44 PM MST
Astronomical Twilight 3:45 AM MST 9:22 PM MST
Moon 3:05 PM MST (7/11) 1:29 AM MST (7/11)
Length of Visible Light 15h 11m
Length of Day
14h 14m
Waxing Gibbous, 75% of the Moon is Illuminated
Jul 11
Waxing Gibbous
Jul 16
Full
Jul 24
Last Quarter
Jul 31
New
Aug 7
First Quarter

Hourly Weather History & Observations

Time (MST) Temp. Dew Point Humidity Pressure Visibility Wind Dir Wind Speed Gust Speed Precip Events Conditions
12:53 AM 89.1 °F 39.0 °F 17% 29.79 in 10.0 mi East 3.5 mph - N/A   Clear
1:53 AM 86.0 °F 39.0 °F 19% 29.78 in 10.0 mi NNE 4.6 mph - N/A   Clear
2:53 AM 84.0 °F 39.9 °F 21% 29.79 in 10.0 mi Calm Calm - N/A   Clear
3:53 AM 84.9 °F 39.0 °F 20% 29.80 in 10.0 mi Calm Calm - N/A   Clear
4:53 AM 84.0 °F 39.9 °F 21% 29.82 in 10.0 mi North 5.8 mph - N/A   Clear
5:53 AM 84.0 °F 41.0 °F 22% 29.83 in 10.0 mi Calm Calm - N/A   Clear
6:53 AM 88.0 °F 41.0 °F 19% 29.82 in 10.0 mi NNE 15.0 mph - N/A   Clear
7:53 AM 91.0 °F 42.1 °F 18% 29.84 in 9.0 mi WSW 6.9 mph - N/A   Clear
8:53 AM 93.9 °F 41.0 °F 16% 29.85 in 10.0 mi South 3.5 mph - N/A   Clear
9:53 AM 98.1 °F 44.1 °F 16% 29.85 in 10.0 mi Variable 5.8 mph - N/A   Clear
10:53 AM 102.0 °F 41.0 °F 12% 29.84 in 10.0 mi Variable 4.6 mph - N/A   Clear
11:53 AM 105.1 °F 41.0 °F 11% 29.83 in 10.0 mi SSW 6.9 mph - N/A   Clear
12:53 PM 107.1 °F 43.0 °F 11% 29.78 in 10.0 mi West 13.8 mph 19.6 mph N/A   Clear
1:53 PM 109.0 °F 42.1 °F 10% 29.75 in 10.0 mi WSW 11.5 mph 21.9 mph N/A   Clear
2:53 PM 111.0 °F 39.9 °F 9% 29.72 in 10.0 mi West 12.7 mph - N/A   Clear
3:53 PM 111.9 °F 39.9 °F 9% 29.70 in 10.0 mi WSW 23.0 mph 35.7 mph N/A   Clear
4:53 PM 111.0 °F 39.0 °F 9% 29.70 in 10.0 mi West 20.7 mph 32.2 mph N/A   Clear
5:53 PM 107.1 °F 39.0 °F 10% 29.70 in 10.0 mi West 23.0 mph - N/A   Clear
6:53 PM 105.1 °F 39.0 °F 10% 29.70 in 10.0 mi West 19.6 mph - N/A   Clear
7:53 PM 102.9 °F 39.9 °F 12% 29.71 in 10.0 mi West 17.3 mph - N/A   Clear
8:53 PM 100.0 °F 41.0 °F 13% 29.71 in 10.0 mi West 13.8 mph - N/A   Clear
9:53 PM 98.1 °F 41.0 °F 14% 29.73 in 10.0 mi West 11.5 mph - N/A   Clear
10:53 PM 97.0 °F 41.0 °F 14% 29.73 in 10.0 mi WSW 16.1 mph - N/A   Clear
11:53 PM 96.1 °F 41.0 °F 15% 29.72 in 10.0 mi West 4.6 mph - N/A   Clear